Regional Weather Roundup
Issued by NWS

Current Version | Previous Version | Text Only | Print | Product List | Glossary On
Versions: 1 2 3 4 5 6 7 8 9 10 11 12 13 14 15 16 17 18 19 20 21 22 23 24 25 26 27 28 29 30 31 32 33 34 35 36 37 38 39 40 41 42 43 44 45 46 47 48 49 50
000
ASUS45 KPSR 232210
RWRAZ

ARIZONA HOURLY REGIONAL WEATHER ROUNDUP
NATIONAL WEATHER SERVICE PHOENIX AZ
300 PM MST FRI OCT 23 2020

NOTE: FAIR INDICATES FEW OR NO CLOUDS BELOW 12,000 FEET WITH NO
SIGNIFICANT WEATHER AND/OR OBSTRUCTIONS TO VISIBILITY.

AZZ001>003-036-232300-
NORTHWEST ARIZONA

CITY           SKY/WX    TMP DP  RH WIND       PRES   REMARKS
BULLHEAD CITY  MOSUNNY   86  43  22 NW7       29.84F
KINGMAN        MOSUNNY   81  39  22 SW17      29.98S
$$

AZZ004>008-015-016-018-232300-
NORTH CENTRAL ARIZONA

CITY           SKY/WX    TMP DP  RH WIND       PRES   REMARKS
GRAND CANYON   SUNNY     70  34  26 SW12G24   30.13F
WILLIAMS       MOSUNNY   70  28  21 SW16G24   30.15F
PRESCOTT       MOSUNNY   74  39  28 S9        30.07F
FLAGSTAFF      SUNNY     65  36  34 SW9G25    30.17F
PAYSON         SUNNY     73  37  27 SW13      30.11S
PAGE           SUNNY     75  28  17 VRB5      29.98F
$$

AZZ009>014-017-232300-
NORTHEAST ARIZONA

CITY           SKY/WX    TMP DP  RH WIND       PRES   REMARKS
WINSLOW        SUNNY     81  33  17 W12G21    30.03F
SAINT JOHNS    SUNNY     78  32  18 W15       30.07F
WINDOW ROCK    SUNNY     72  18  13 W12G17    30.14S
SHOW LOW       SUNNY     72  30  21 SW14G20   30.16F
$$

AZZ540-542>544-546-548-232300-
GREATER PHOENIX AREA

CITY           SKY/WX    TMP DP  RH WIND       PRES   REMARKS
PHOENIX        MOSUNNY   92  47  21 VRB5      29.83F
BUCKEYE        SUNNY     90  48  24 VRB3      29.86F
LUKE AFB       SUNNY     90  49  24 W6        29.83F
DEER VALLEY    SUNNY     88  49  25 SW8       29.87F
SCOTTSDALE     SUNNY     89  49  25 VRB5      29.88F
MESA-FALCON    SUNNY     91  45  20 VRB7      29.86F
MESA-GATEWAY   MOSUNNY   90  46  22 N3        29.88F
CHANDLER       SUNNY     91  41  17 SE5       29.86F
$$

AZZ539-553-232300-
SOUTHWEST MARICOPA COUNTY AND PINAL COUNTY

CITY           SKY/WX    TMP DP  RH WIND       PRES   REMARKS
CASA GRANDE    SUNNY     91  43  18 VRB6      29.87F
GILA BEND      FAIR      91  45  20 NW7       29.82F
$$

AZZ503-504-507>509-232300-
SOUTHEAST ARIZONA

CITY           SKY/WX    TMP DP  RH WIND       PRES   REMARKS
TUCSON         SUNNY     89  38  16 SW8       29.95F
DAVIS-MONTHAN  SUNNY     89  44  20 W6        29.93F
RYAN FIELD     SUNNY     91  34  13 SW16      29.93F
NOGALES        SUNNY     87  39  18 SW16G22   30.03S
SIERRA VISTA   SUNNY     84  26  12 W7        30.08S
SAFFORD        SUNNY     87  43  21 W7        29.94F
$$

AZZ532-232300-
SOUTHWEST ARIZONA

CITY           SKY/WX    TMP DP  RH WIND       PRES   REMARKS
YUMA           MOSUNNY   89  56  32 S6        29.81F
$$

CAZ041-043-047-048-061-525>527-560>570-232300-
SOUTHERN CALIFORNIA

CITY           SKY/WX    TMP DP  RH WIND       PRES   REMARKS
DOWNTOWN L.A.  PTSUNNY   70  58  65 W3        29.94F
L.A. AIRPORT   CLOUDY    68  58  70 W8        29.95F
SAN DIEGO      PTSUNNY   73  56  54 SW7       29.97F
BURBANK        MOSUNNY   69  55  60 SE5       29.94F
ONTARIO        PTSUNNY   74  51  44 VRB5      29.95S
RIVERSIDE      MOSUNNY   73  53  49 VRB5      29.94F
PALM SPRINGS   MOSUNNY   90  44  20 NE6       29.85F
EL CENTRO NAS  PTSUNNY   88  54  31 VRB3      29.80F
IMPERIAL         N/A     89  47  23 CALM      29.80
BLYTHE         SUNNY     91  48  22 S10       29.81F
NEEDLES        MOSUNNY   87  47  24 MISG      29.83F
$$

NVZ020-UTZ003-232300-
SOUTHERN NEVADA-UTAH

CITY           SKY/WX    TMP DP  RH WIND       PRES   REMARKS
LAS VEGAS      PTSUNNY   75  24  15 E5        29.93F
SALT LAKE CITY PTSUNNY   50  17  27 VRB3      30.12F
$$

NMZ009-TXZ055-232300-
NEW MEXICO-WEST TEXAS

CITY           SKY/WX    TMP DP  RH WIND       PRES   REMARKS
ALBUQUERQUE    MOSUNNY   72  31  22 E21       30.07F
EL PASO        MOSUNNY   79  38  22 E17       30.04S
$$


........................KEY........................
SKY/WX - SKY CONDITION/WEATHER
TMP    - TEMPERATURE IN FAHRENHEIT
DP     - DEW POINT IN FAHRENHEIT
RH     - RELATIVE HUMIDITY IN PERCENT
WIND   - DIRECTION AND SPEED IN MILES PER HOUR (MPH)
VRB    - VARIABLE WIND DIRECTION
PRES   - MEAN SEA LEVEL PRESSURE IN INCHES OF MERCURY
         F - FALLING PRESSURE   R - RISING PRESSURE
         S - STEADY PRESSURE
VSB    - VISIBILITY IN MILES
HX     - HEAT INDEX IN FAHRENHEIT
WCI    - WIND CHILL INDEX IN FAHRENHEIT
TC     - TEMPERATURE IN CELSIUS WHICH IS ALSO KNOWN AS
         TEMPERATURE IN CENTIGRADE
AFB    - AIR FORCE BASE
         LUKE AFB IS LUKE AIR FORCE BASE
         DAVIS-MONTHAN IS DAVIS-MONTHAN AIR FORCE BASE
NAS    - NAVAL AIR STATION
         EL CENTRO NAS IS EL CENTRO NAVAL AIR STATION
N/A    - NOT AVAILABLE





USA.gov is the U.S. government's official web portal to all federal, state and local government web resources and services.